Data No,UTC Date,UTC Time,Latitude,Longitude,Course(deg),Temp(degC),Sal(psu),Fluor Int,Blank
228,2004/12/19,14:30:00,  9-39.331N,100-00.187E,103.2,28.682,31.178,188,160
229,2004/12/19,14:31:00,  9-39.285N,100-00.393E,103.4,28.654,31.1777,184,160
230,2004/12/19,14:32:00,  9-39.237N,100-00.597E,103.5,28.642,31.1788,190,160
231,2004/12/19,14:33:00,  9-39.189N,100-00.802E,102.5,28.645,31.1804,183,160
232,2004/12/19,14:34:00,  9-39.138N,100-01.010E,103.8,28.657,31.1818,211,160
233,2004/12/19,14:35:00,  9-39.091N,100-01.215E,103,28.668,31.1821,194,160
234,2004/12/19,14:36:00,  9-39.043N,100-01.420E,103.6,28.687,31.1833,198,160
235,2004/12/19,14:37:00,  9-38.995N,100-01.622E,103.1,28.677,31.1831,204,160
236,2004/12/19,14:38:00,  9-38.948N,100-01.823E,102.8,28.664,31.183,195,160
237,2004/12/19,14:39:00,  9-38.900N,100-02.026E,103.3,28.671,31.1802,191,160
238,2004/12/19,14:40:00,  9-38.852N,100-02.228E,103.2,28.684,31.1808,190,160
239,2004/12/19,14:41:00,  9-38.804N,100-02.430E,102,28.701,31.1819,185,160
240,2004/12/19,14:42:00,  9-38.756N,100-02.633E,104.1,28.715,31.1834,193,160
241,2004/12/19,14:43:00,  9-38.709N,100-02.837E,103.5,28.726,31.1836,198,160
242,2004/12/19,14:44:00,  9-38.660N,100-03.040E,104.6,28.729,31.1841,185,160
243,2004/12/19,14:45:00,  9-38.612N,100-03.243E,103.3,28.734,31.1827,191,160
244,2004/12/19,14:46:00,  9-38.564N,100-03.447E,102.7,28.744,31.1802,197,160
245,2004/12/19,14:47:00,  9-38.516N,100-03.651E,104.6,28.754,31.1785,186,160
246,2004/12/19,14:48:00,  9-38.464N,100-03.854E,104.8,28.737,31.1784,186,160
247,2004/12/19,14:49:00,  9-38.415N,100-04.058E,102.6,28.738,31.1777,187,160
248,2004/12/19,14:50:00,  9-38.361N,100-04.262E,103.8,28.757,31.1772,180,160
249,2004/12/19,14:51:00,  9-38.313N,100-04.466E,102.3,28.772,31.1782,192,160
250,2004/12/19,14:52:00,  9-38.266N,100-04.669E,103.6,28.768,31.1791,194,160
251,2004/12/19,14:53:00,  9-38.216N,100-04.874E,103.6,28.764,31.178,195,160
252,2004/12/19,14:54:00,  9-38.166N,100-05.077E,103.3,28.769,31.1772,200,160
253,2004/12/19,14:55:00,  9-38.116N,100-05.280E,103.4,28.78,31.1768,189,160
254,2004/12/19,14:56:00,  9-38.071N,100-05.483E,104.3,28.78,31.1698,190,160
255,2004/12/19,14:57:00,  9-38.020N,100-05.685E,104.3,28.773,31.158,191,160
256,2004/12/19,14:58:00,  9-37.972N,100-05.887E,104.4,28.726,31.1449,191,160
257,2004/12/19,14:59:00,  9-37.914N,100-06.086E,112.6,28.704,31.1533,188,160
258,2004/12/19,15:00:00,  9-37.804N,100-06.256E,133.3,28.715,31.1646,198,160
259,2004/12/19,15:01:00,  9-37.662N,100-06.403E,135.5,28.677,31.1548,198,160
260,2004/12/19,15:02:00,  9-37.519N,100-06.549E,134.8,28.654,31.1386,197,160
261,2004/12/19,15:03:00,  9-37.366N,100-06.691E,134.7,28.663,31.1489,203,160
262,2004/12/19,15:04:00,  9-37.219N,100-06.834E,137,28.677,31.1483,202,160
263,2004/12/19,15:05:00,  9-37.072N,100-06.978E,137.3,28.694,31.1459,201,160
264,2004/12/19,15:06:00,  9-36.925N,100-07.121E,136.1,28.7,31.1421,200,160
265,2004/12/19,15:07:00,  9-36.776N,100-07.264E,134.6,28.708,31.1392,197,160
266,2004/12/19,15:08:00,  9-36.629N,100-07.407E,135.1,28.691,31.1387,198,160
267,2004/12/19,15:09:00,  9-36.480N,100-07.550E,136.4,28.677,31.1351,200,160
268,2004/12/19,15:10:00,  9-36.333N,100-07.693E,137.1,28.684,31.1235,194,160
269,2004/12/19,15:11:00,  9-36.187N,100-07.837E,136.5,28.697,31.1115,194,160
270,2004/12/19,15:12:00,  9-36.040N,100-07.980E,135,28.711,31.1134,200,160
271,2004/12/19,15:13:00,  9-35.889N,100-08.122E,135.4,28.722,31.1197,192,160
272,2004/12/19,15:14:00,  9-35.740N,100-08.264E,136.9,28.728,31.1238,192,160
273,2004/12/19,15:15:00,  9-35.593N,100-08.408E,136.9,28.732,31.1261,200,160
274,2004/12/19,15:16:00,  9-35.445N,100-08.550E,135.5,28.738,31.1239,201,160
275,2004/12/19,15:17:00,  9-35.297N,100-08.693E,135.5,28.751,31.1216,200,160
276,2004/12/19,15:18:00,  9-35.148N,100-08.837E,136,28.764,31.1192,197,160
277,2004/12/19,15:19:00,  9-35.001N,100-08.979E,136.8,28.774,31.1225,198,160
278,2004/12/19,15:20:00,  9-34.855N,100-09.123E,137.3,28.782,31.1309,195,160
279,2004/12/19,15:21:00,  9-34.710N,100-09.265E,135.5,28.792,31.1322,197,160
280,2004/12/19,15:22:00,  9-34.563N,100-09.407E,135.2,28.804,31.1314,198,160
281,2004/12/19,15:23:00,  9-34.417N,100-09.549E,137.5,28.817,31.1151,192,160
282,2004/12/19,15:24:00,  9-34.272N,100-09.693E,137.2,28.831,31.0922,194,160
283,2004/12/19,15:25:00,  9-34.126N,100-09.835E,134.4,28.84,31.0653,189,160
284,2004/12/19,15:26:00,  9-33.981N,100-09.977E,134.9,28.848,31.0639,191,160
285,2004/12/19,15:27:00,  9-33.835N,100-10.118E,134.7,28.868,31.0509,194,160
286,2004/12/19,15:28:00,  9-33.690N,100-10.260E,135.5,28.895,30.9985,182,160
287,2004/12/19,15:29:00,  9-33.544N,100-10.402E,136.2,28.93,30.9895,180,160
288,2004/12/19,15:30:00,  9-33.400N,100-10.544E,136,28.946,30.9734,183,160
289,2004/12/19,15:31:00,  9-33.256N,100-10.686E,136.6,28.947,30.9548,173,160
290,2004/12/19,15:32:00,  9-33.112N,100-10.829E,136.2,28.955,30.8723,179,160
291,2004/12/19,15:33:00,  9-32.969N,100-10.972E,135.5,28.95,30.7631,185,160
292,2004/12/19,15:34:00,  9-32.825N,100-11.115E,135.1,28.93,30.6865,177,160
293,2004/12/19,15:35:00,  9-32.680N,100-11.258E,134.6,28.901,30.6428,175,160
294,2004/12/19,15:36:00,  9-32.534N,100-11.400E,134.6,28.88,30.5074,180,160
295,2004/12/19,15:37:00,  9-32.389N,100-11.542E,134.2,28.901,30.3754,177,160
296,2004/12/19,15:38:00,  9-32.245N,100-11.685E,134.8,28.891,30.38,177,160
297,2004/12/19,15:39:00,  9-32.102N,100-11.829E,136.1,28.851,30.4183,178,160
298,2004/12/19,15:40:00,  9-31.958N,100-11.973E,136.9,28.842,30.3814,171,160
299,2004/12/19,15:41:00,  9-31.812N,100-12.117E,135.9,28.847,30.2927,173,160
300,2004/12/19,15:42:00,  9-31.667N,100-12.261E,135.8,28.849,30.2926,172,160
301,2004/12/19,15:43:00,  9-31.523N,100-12.405E,133,28.853,30.3284,195,160
302,2004/12/19,15:44:00,  9-31.378N,100-12.549E,133.6,28.895,30.2854,177,160
303,2004/12/19,15:45:00,  9-31.233N,100-12.691E,134.4,28.906,30.4018,177,160
304,2004/12/19,15:46:00,  9-31.087N,100-12.835E,135.4,28.908,30.468,174,160
305,2004/12/19,15:47:00,  9-30.941N,100-12.978E,136.2,28.914,30.4711,172,160
306,2004/12/19,15:48:00,  9-30.798N,100-13.122E,136.4,28.923,30.4303,176,160
307,2004/12/19,15:49:00,  9-30.653N,100-13.265E,136,28.925,30.3902,181,160
308,2004/12/19,15:50:00,  9-30.507N,100-13.410E,137,28.918,30.3805,179,160
309,2004/12/19,15:51:00,  9-30.364N,100-13.554E,136.4,28.92,30.3106,183,160
310,2004/12/19,15:52:00,  9-30.218N,100-13.698E,136.3,28.9,30.28,171,160
311,2004/12/19,15:53:00,  9-30.071N,100-13.841E,134.4,28.891,30.2528,175,160
312,2004/12/19,15:54:00,  9-29.926N,100-13.985E,134.5,28.882,30.1852,168,160
313,2004/12/19,15:55:00,  9-29.783N,100-14.129E,133.9,28.863,30.1631,174,160
314,2004/12/19,15:56:00,  9-29.638N,100-14.274E,134.8,28.879,30.1471,174,160
315,2004/12/19,15:57:00,  9-29.494N,100-14.417E,134.4,28.89,30.214,180,160
316,2004/12/19,15:58:00,  9-29.347N,100-14.561E,133.7,28.874,30.2696,176,160
317,2004/12/19,15:59:00,  9-29.203N,100-14.705E,134.8,28.83,30.2851,173,160
318,2004/12/19,16:00:00,  9-29.056N,100-14.849E,134.2,28.819,30.2355,174,160
319,2004/12/19,16:01:00,  9-28.911N,100-14.994E,136.1,28.868,30.2251,174,160
320,2004/12/19,16:02:00,  9-28.760N,100-15.132E,136.3,28.873,30.3471,172,160
321,2004/12/19,16:03:00,  9-28.609N,100-15.269E,138.5,28.903,30.4002,174,160
322,2004/12/19,16:04:00,  9-28.460N,100-15.409E,138,29.016,30.4622,177,160
323,2004/12/19,16:05:00,  9-28.310N,100-15.547E,137.9,29.047,30.7075,173,160
324,2004/12/19,16:06:00,  9-28.158N,100-15.685E,137.5,29.064,30.8703,173,160
325,2004/12/19,16:07:00,  9-28.008N,100-15.824E,138.1,29.084,30.9431,172,160
326,2004/12/19,16:08:00,  9-27.853N,100-15.958E,142.1,29.073,30.9933,173,160
327,2004/12/19,16:09:00,  9-27.695N,100-16.088E,141.4,29.066,31.0328,173,160
328,2004/12/19,16:10:00,  9-27.538N,100-16.220E,141.6,29.082,31.0281,176,160
329,2004/12/19,16:11:00,  9-27.382N,100-16.351E,141.1,29.08,31.0912,175,160
330,2004/12/19,16:12:00,  9-27.225N,100-16.483E,140.4,29.09,31.1091,172,160
331,2004/12/19,16:13:00,  9-27.072N,100-16.616E,139,29.082,31.1105,174,160
332,2004/12/19,16:14:00,  9-26.914N,100-16.748E,139.3,29.103,31.1122,172,160
333,2004/12/19,16:15:00,  9-26.757N,100-16.879E,139.9,29.113,31.1174,173,160
334,2004/12/19,16:16:00,  9-26.600N,100-17.010E,138.6,29.113,31.1344,173,160
335,2004/12/19,16:17:00,  9-26.450N,100-17.149E,138,29.101,31.1294,173,160
336,2004/12/19,16:18:00,  9-26.299N,100-17.288E,137.8,29.106,31.1468,171,160
337,2004/12/19,16:19:00,  9-26.148N,100-17.426E,137.4,29.101,31.1507,174,160
338,2004/12/19,16:20:00,  9-25.996N,100-17.563E,136,29.098,31.1545,171,160
339,2004/12/19,16:21:00,  9-25.844N,100-17.700E,136.4,29.089,31.1589,172,160
340,2004/12/19,16:22:00,  9-25.692N,100-17.838E,137.2,29.086,31.1598,170,160
341,2004/12/19,16:23:00,  9-25.540N,100-17.976E,138.1,29.088,31.1669,172,160
342,2004/12/19,16:24:00,  9-25.389N,100-18.115E,138.3,29.09,31.1715,173,160
343,2004/12/19,16:25:00,  9-25.238N,100-18.254E,137.9,29.116,31.1422,174,160
344,2004/12/19,16:26:00,  9-25.086N,100-18.392E,137.4,29.123,31.1505,174,160
345,2004/12/19,16:27:00,  9-24.935N,100-18.530E,136.8,29.138,31.1113,171,160
346,2004/12/19,16:28:00,  9-24.784N,100-18.668E,136.9,29.149,31.1451,172,160
347,2004/12/19,16:29:00,  9-24.632N,100-18.806E,138.3,29.162,31.1709,173,160
348,2004/12/19,16:30:00,  9-24.480N,100-18.944E,138.4,29.17,31.1725,174,160
349,2004/12/19,16:31:00,  9-24.329N,100-19.082E,137,29.192,31.16,170,160
350,2004/12/19,16:32:00,  9-24.177N,100-19.220E,136.8,29.201,31.152,169,160
351,2004/12/19,16:33:00,  9-24.026N,100-19.359E,137.5,29.201,31.1119,168,160
352,2004/12/19,16:34:00,  9-23.876N,100-19.498E,138,29.199,31.0685,172,160
353,2004/12/19,16:35:00,  9-23.726N,100-19.637E,139,29.205,31.0067,173,160
354,2004/12/19,16:36:00,  9-23.575N,100-19.775E,139.1,29.199,30.9847,170,160
355,2004/12/19,16:37:00,  9-23.424N,100-19.912E,137.6,29.202,30.9801,171,160
356,2004/12/19,16:38:00,  9-23.276N,100-20.052E,137.8,29.215,31.0045,174,160
357,2004/12/19,16:39:00,  9-23.125N,100-20.188E,137.2,29.212,31.0341,173,160
358,2004/12/19,16:40:00,  9-22.974N,100-20.325E,136,29.22,31.0263,173,160
359,2004/12/19,16:41:00,  9-22.824N,100-20.461E,138.2,29.224,31.0098,170,160
360,2004/12/19,16:42:00,  9-22.675N,100-20.598E,140.6,29.223,31.0249,172,160
361,2004/12/19,16:43:00,  9-22.525N,100-20.734E,135.8,29.218,31.0077,172,160
362,2004/12/19,16:44:00,  9-22.375N,100-20.871E,138.5,29.211,31.0022,171,160
363,2004/12/19,16:45:00,  9-22.225N,100-21.008E,138.3,29.184,30.9829,175,160
364,2004/12/19,16:46:00,  9-22.076N,100-21.145E,136.8,29.138,30.9485,177,160
365,2004/12/19,16:47:00,  9-21.927N,100-21.282E,136.7,29.151,30.8891,173,160
366,2004/12/19,16:48:00,  9-21.777N,100-21.419E,136.7,29.124,30.8048,175,160
367,2004/12/19,16:49:00,  9-21.627N,100-21.555E,137.4,29.133,30.7619,170,160
368,2004/12/19,16:50:00,  9-21.476N,100-21.692E,138.5,29.146,30.7802,173,160
369,2004/12/19,16:51:00,  9-21.324N,100-21.826E,137,29.12,30.7583,169,160
370,2004/12/19,16:52:00,  9-21.176N,100-21.966E,138.8,29.127,30.7575,171,160
371,2004/12/19,16:53:00,  9-21.027N,100-22.104E,138.6,29.105,30.7413,172,160
372,2004/12/19,16:54:00,  9-20.877N,100-22.241E,137.4,29.113,30.6967,168,160
373,2004/12/19,16:55:00,  9-20.727N,100-22.378E,136,29.053,30.7023,172,160
374,2004/12/19,16:56:00,  9-20.577N,100-22.515E,136.2,29.051,30.6644,173,160
375,2004/12/19,16:57:00,  9-20.427N,100-22.651E,136.8,29.01,30.5291,173,160
376,2004/12/19,16:58:00,  9-20.279N,100-22.790E,137.6,28.952,30.5172,170,160
377,2004/12/19,16:59:00,  9-20.130N,100-22.928E,138.5,28.98,30.3274,172,160
378,2004/12/19,17:00:00,  9-19.983N,100-23.068E,136.4,29,30.2145,176,160
380,2004/12/19,17:02:00,  9-19.684N,100-23.343E,137.8,28.982,30.4499,171,160
381,2004/12/19,17:03:00,  9-19.533N,100-23.481E,137.8,29.021,30.4357,174,160
382,2004/12/19,17:04:00,  9-19.384N,100-23.618E,136.8,29.047,30.374,174,160
383,2004/12/19,17:05:00,  9-19.234N,100-23.755E,138.5,29.047,30.5368,170,160
384,2004/12/19,17:06:00,  9-19.086N,100-23.893E,137.7,29.078,30.5865,170,160
385,2004/12/19,17:07:00,  9-18.938N,100-24.030E,137.1,29.04,30.5327,171,160
386,2004/12/19,17:08:00,  9-18.788N,100-24.168E,138.5,29.013,30.5664,172,160
387,2004/12/19,17:09:00,  9-18.639N,100-24.305E,137.3,28.776,30.5325,170,160
388,2004/12/19,17:10:00,  9-18.490N,100-24.442E,136.8,29.021,30.4075,172,160
389,2004/12/19,17:11:00,  9-18.341N,100-24.579E,136.3,29.019,30.4641,172,160
390,2004/12/19,17:12:00,  9-18.191N,100-24.716E,135.3,29.078,30.5031,174,160
391,2004/12/19,17:13:00,  9-18.040N,100-24.851E,143,29.1,30.5974,169,160
392,2004/12/19,17:14:00,  9-17.875N,100-24.965E,144,29.045,30.7476,172,160
393,2004/12/19,17:15:00,  9-17.709N,100-25.082E,148.3,29.097,30.6779,172,160
394,2004/12/19,17:16:00,  9-17.539N,100-25.194E,144.4,29.058,30.6057,173,160
395,2004/12/19,17:17:00,  9-17.372N,100-25.309E,146.1,29.06,30.6724,169,160
396,2004/12/19,17:18:00,  9-17.204N,100-25.423E,144.9,29.023,30.6328,170,160
397,2004/12/19,17:19:00,  9-17.037N,100-25.538E,143.6,29.026,30.6235,173,160
398,2004/12/19,17:20:00,  9-16.871N,100-25.653E,146.4,29.049,30.4518,171,160
399,2004/12/19,17:21:00,  9-16.705N,100-25.770E,145.8,29.054,30.5307,167,160
400,2004/12/19,17:22:00,  9-16.541N,100-25.887E,145.6,29.051,30.571,170,160
401,2004/12/19,17:23:00,  9-16.376N,100-26.004E,145.5,29.013,30.561,170,160
402,2004/12/19,17:24:00,  9-16.206N,100-26.115E,145,29.051,30.5603,172,160
403,2004/12/19,17:25:00,  9-16.040N,100-26.232E,145.1,29.041,30.5495,171,160
404,2004/12/19,17:26:00,  9-15.876N,100-26.349E,145.8,29,30.6027,169,160
405,2004/12/19,17:27:00,  9-15.710N,100-26.465E,146.5,29.037,30.4748,175,160
406,2004/12/19,17:28:00,  9-15.540N,100-26.579E,146.6,28.992,30.5203,175,160
407,2004/12/19,17:29:00,  9-15.376N,100-26.697E,145,28.972,30.5213,169,160
408,2004/12/19,17:30:00,  9-15.209N,100-26.812E,145.6,28.916,30.458,171,160
409,2004/12/19,17:31:00,  9-15.042N,100-26.928E,145.2,28.967,30.3786,169,160
410,2004/12/19,17:32:00,  9-14.875N,100-27.043E,145,28.963,30.3721,176,160
411,2004/12/19,17:33:00,  9-14.707N,100-27.158E,145.5,28.943,30.4754,172,160
412,2004/12/19,17:34:00,  9-14.554N,100-27.288E,133.8,29.058,30.3544,175,160
413,2004/12/19,17:35:00,  9-14.406N,100-27.425E,137,29.056,30.5375,174,160
414,2004/12/19,17:36:00,  9-14.257N,100-27.564E,139.1,29.051,30.7866,170,160
415,2004/12/19,17:37:01,  9-14.109N,100-27.702E,137.8,29.049,30.6626,172,160
416,2004/12/19,17:38:00,  9-13.962N,100-27.841E,136.6,28.996,30.6508,171,160
417,2004/12/19,17:39:00,  9-13.812N,100-27.979E,136.3,28.97,30.63,172,160
418,2004/12/19,17:40:00,  9-13.660N,100-28.116E,136.2,28.942,30.5349,175,160
419,2004/12/19,17:41:00,  9-13.511N,100-28.255E,137.6,28.989,30.4399,169,160
420,2004/12/19,17:42:01,  9-13.362N,100-28.395E,137.8,28.974,30.4571,176,160
421,2004/12/19,17:43:00,  9-13.213N,100-28.534E,135.8,28.918,30.4855,163,160
422,2004/12/19,17:44:00,  9-13.062N,100-28.672E,137.2,28.928,30.4863,169,160
423,2004/12/19,17:45:00,  9-12.911N,100-28.810E,136.3,28.921,30.3629,171,160
424,2004/12/19,17:46:00,  9-12.759N,100-28.948E,136.9,28.96,30.4154,169,160
425,2004/12/19,17:47:00,  9-12.609N,100-29.086E,136.1,28.933,30.4931,173,160
426,2004/12/19,17:48:00,  9-12.459N,100-29.224E,137.3,28.911,30.554,171,160
427,2004/12/19,17:49:00,  9-12.311N,100-29.363E,138.4,28.898,30.453,169,160
428,2004/12/19,17:50:00,  9-12.160N,100-29.501E,138.9,28.924,30.3952,173,160
429,2004/12/19,17:51:00,  9-12.009N,100-29.639E,137.3,28.875,30.4286,175,160
430,2004/12/19,17:52:00,  9-11.858N,100-29.776E,137.6,28.853,30.4631,172,160
431,2004/12/19,17:53:00,  9-11.709N,100-29.914E,137.5,28.836,30.4008,171,160
432,2004/12/19,17:54:00,  9-11.560N,100-30.053E,136.6,28.819,30.3829,173,160
433,2004/12/19,17:55:01,  9-11.411N,100-30.192E,137.4,28.853,30.3362,171,160
434,2004/12/19,17:56:00,  9-11.262N,100-30.329E,138.5,28.837,30.3672,172,160
435,2004/12/19,17:57:00,  9-11.111N,100-30.467E,138.9,28.809,30.3913,171,160
436,2004/12/19,17:58:00,  9-10.960N,100-30.605E,138.3,28.799,30.3581,173,160
437,2004/12/19,17:59:01,  9-10.813N,100-30.744E,138,28.788,30.3277,167,160
438,2004/12/19,18:00:00,  9-10.663N,100-30.883E,138,28.776,30.3252,169,160
439,2004/12/19,18:01:00,  9-10.513N,100-31.020E,139.3,28.76,30.3196,165,160
440,2004/12/19,18:02:00,  9-10.365N,100-31.156E,138.7,28.74,30.3304,169,160
441,2004/12/19,18:03:00,  9-10.216N,100-31.294E,138.6,28.725,30.3375,172,160
442,2004/12/19,18:04:00,  9-10.067N,100-31.431E,138.8,28.721,30.3405,174,160
443,2004/12/19,18:05:00,  9-09.918N,100-31.569E,137.2,28.728,30.3423,170,160
444,2004/12/19,18:06:00,  9-09.771N,100-31.708E,135,28.736,30.3578,170,160
445,2004/12/19,18:07:00,  9-09.620N,100-31.844E,136.8,28.742,30.3919,174,160
446,2004/12/19,18:08:01,  9-09.469N,100-31.981E,135.9,28.752,30.4082,167,160
447,2004/12/19,18:09:00,  9-09.320N,100-32.118E,137.6,28.78,30.433,174,160
448,2004/12/19,18:10:00,  9-09.170N,100-32.256E,138.2,28.805,30.4697,167,160
449,2004/12/19,18:11:00,  9-09.020N,100-32.393E,136.1,28.823,30.5138,170,160
450,2004/12/19,18:12:01,  9-08.871N,100-32.529E,135.9,28.823,30.5529,171,160
451,2004/12/19,18:13:00,  9-08.722N,100-32.666E,138.7,28.813,30.584,175,160
452,2004/12/19,18:14:00,  9-08.576N,100-32.805E,139.6,28.8,30.6049,171,160
453,2004/12/19,18:15:00,  9-08.427N,100-32.941E,137.8,28.79,30.6222,171,160
454,2004/12/19,18:16:01,  9-08.277N,100-33.076E,137.1,28.785,30.6395,164,160
455,2004/12/19,18:17:00,  9-08.128N,100-33.213E,136.4,28.792,30.6657,169,160
456,2004/12/19,18:18:00,  9-07.979N,100-33.347E,137.2,28.855,30.6986,169,160
457,2004/12/19,18:19:00,  9-07.830N,100-33.482E,138.3,28.891,30.7533,170,160
458,2004/12/19,18:20:01,  9-07.680N,100-33.616E,137.1,28.948,30.8,171,160
459,2004/12/19,18:21:01,  9-07.531N,100-33.751E,137.6,29.002,30.8404,172,160
460,2004/12/19,18:22:00,  9-07.384N,100-33.887E,139.3,29.015,30.8908,170,160
461,2004/12/19,18:23:00,  9-07.235N,100-34.021E,138.3,29.013,30.9325,175,160
462,2004/12/19,18:24:01,  9-07.086N,100-34.155E,137.5,28.99,30.9499,175,160
463,2004/12/19,18:25:01,  9-06.937N,100-34.291E,136.6,28.955,30.9548,174,160
464,2004/12/19,18:26:00,  9-06.789N,100-34.427E,137.2,28.93,30.9455,167,160
465,2004/12/19,18:27:00,  9-06.640N,100-34.561E,137.2,28.904,30.9374,175,160
466,2004/12/19,18:28:01,  9-06.491N,100-34.696E,138.4,28.889,30.9355,175,160
467,2004/12/19,18:29:00,  9-06.341N,100-34.829E,137.3,28.88,30.9326,172,160
468,2004/12/19,18:30:00,  9-06.190N,100-34.964E,138.7,28.86,30.9347,180,160
469,2004/12/19,18:31:00,  9-06.043N,100-35.100E,137.8,28.834,30.9382,170,160
470,2004/12/19,18:32:01,  9-05.894N,100-35.236E,138.5,28.825,30.9386,174,160
471,2004/12/19,18:33:00,  9-05.746N,100-35.371E,139.7,28.852,30.9367,178,160
472,2004/12/19,18:34:00,  9-05.598N,100-35.507E,138.5,28.882,30.941,178,160
473,2004/12/19,18:35:00,  9-05.449N,100-35.643E,138.5,28.887,30.9582,168,160
474,2004/12/19,18:36:01,  9-05.301N,100-35.779E,138,28.895,30.9693,168,160
475,2004/12/19,18:37:01,  9-05.150N,100-35.912E,138.6,28.907,30.9783,181,160
476,2004/12/19,18:38:00,  9-05.003N,100-36.049E,138.2,28.931,30.9933,171,160
477,2004/12/19,18:39:00,  9-04.855N,100-36.183E,138.1,28.945,31.0091,165,160
478,2004/12/19,18:40:01,  9-04.706N,100-36.317E,136.8,28.954,31.0274,170,160
479,2004/12/19,18:41:01,  9-04.557N,100-36.451E,136.8,28.979,31.039,170,160
480,2004/12/19,18:42:00,  9-04.409N,100-36.585E,136.1,29.014,31.0555,171,160
481,2004/12/19,18:43:01,  9-04.261N,100-36.720E,136.9,29.04,31.0786,174,160
482,2004/12/19,18:44:01,  9-04.115N,100-36.859E,134,29.099,31.097,174,160
483,2004/12/19,18:45:00,  9-03.974N,100-37.001E,134.8,29.122,31.1184,171,160
484,2004/12/19,18:46:00,  9-03.832N,100-37.141E,135.6,29.139,31.1457,175,160
485,2004/12/19,18:47:00,  9-03.687N,100-37.280E,133.6,29.161,31.159,170,160
486,2004/12/19,18:48:01,  9-03.530N,100-37.401E,152.9,29.165,31.1735,173,160
487,2004/12/19,18:49:01,  9-03.355N,100-37.489E,152.8,29.165,31.1914,170,160
488,2004/12/19,18:50:00,  9-03.177N,100-37.579E,152.7,29.173,31.2029,174,160
489,2004/12/19,18:51:00,  9-02.998N,100-37.669E,152.7,29.163,31.2131,171,160
490,2004/12/19,18:52:01,  9-02.820N,100-37.760E,152.5,29.168,31.2178,174,160
491,2004/12/19,18:53:01,  9-02.641N,100-37.851E,152.4,29.16,31.2179,172,160
492,2004/12/19,18:54:00,  9-02.463N,100-37.942E,152.4,29.153,31.216,171,160
493,2004/12/19,18:55:00,  9-02.285N,100-38.032E,152.2,29.153,31.2156,173,160
494,2004/12/19,18:56:01,  9-02.107N,100-38.123E,153.9,29.148,31.2169,170,160
495,2004/12/19,18:57:01,  9-01.929N,100-38.215E,153.6,29.138,31.2212,175,160
496,2004/12/19,18:58:00,  9-01.750N,100-38.306E,154.8,29.14,31.2206,170,160
497,2004/12/19,18:59:00,  9-01.573N,100-38.398E,153.1,29.156,31.2224,172,160
498,2004/12/19,19:00:01,  9-01.395N,100-38.487E,152.4,29.175,31.229,171,160
499,2004/12/19,19:01:01,  9-01.216N,100-38.577E,153,29.181,31.2443,168,160
500,2004/12/19,19:02:01,  9-01.034N,100-38.669E,154.1,29.175,31.2566,172,160
501,2004/12/19,19:03:00,  9-00.859N,100-38.758E,152.8,29.182,31.2614,172,160
502,2004/12/19,19:04:01,  9-00.680N,100-38.849E,152.2,29.195,31.2628,174,160
503,2004/12/19,19:05:01,  9-00.502N,100-38.939E,152.3,29.185,31.2649,172,160
504,2004/12/19,19:06:01,  9-00.323N,100-39.030E,152.3,29.187,31.2645,172,160
505,2004/12/19,19:07:00,  9-00.149N,100-39.120E,161,29.203,31.2588,173,160
506,2004/12/19,19:08:00,  8-59.971N,100-39.210E,153.7,29.203,31.2632,175,160
507,2004/12/19,19:09:01,  8-59.792N,100-39.299E,152.4,29.212,31.2684,172,160
508,2004/12/19,19:10:01,  8-59.613N,100-39.390E,151.8,29.216,31.2736,179,160
509,2004/12/19,19:11:00,  8-59.434N,100-39.480E,153.9,29.206,31.2811,183,160
510,2004/12/19,19:12:00,  8-59.256N,100-39.569E,152.9,29.201,31.2896,180,160
511,2004/12/19,19:13:01,  8-59.078N,100-39.660E,154.1,29.188,31.2974,167,160
512,2004/12/19,19:14:01,  8-58.900N,100-39.750E,153.4,29.173,31.3031,170,160
513,2004/12/19,19:15:01,  8-58.719N,100-39.841E,154.3,29.163,31.307,176,160
514,2004/12/19,19:16:00,  8-58.545N,100-39.929E,154.4,29.16,31.31,174,160
515,2004/12/19,19:17:01,  8-58.372N,100-40.019E,155.6,29.16,31.3137,180,160
516,2004/12/19,19:18:01,  8-58.206N,100-40.126E,138.2,29.156,31.3154,178,160
517,2004/12/19,19:19:01,  8-58.057N,100-40.260E,140.1,29.142,31.3187,176,160
518,2004/12/19,19:20:00,  8-57.913N,100-40.389E,139.5,29.138,31.3205,176,160
519,2004/12/19,19:21:01,  8-57.764N,100-40.520E,139,29.145,31.322,180,160
520,2004/12/19,19:22:01,  8-57.618N,100-40.652E,138.3,29.142,31.3256,175,160
521,2004/12/19,19:23:01,  8-57.470N,100-40.786E,138,29.142,31.3277,175,160
522,2004/12/19,19:24:00,  8-57.323N,100-40.915E,138.7,29.142,31.3297,179,160
523,2004/12/19,19:25:00,  8-57.175N,100-41.047E,138,29.141,31.3318,176,160
524,2004/12/19,19:26:01,  8-57.025N,100-41.178E,137.4,29.148,31.3343,175,160
525,2004/12/19,19:27:01,  8-56.875N,100-41.310E,139.1,29.155,31.3376,177,160
526,2004/12/19,19:28:01,  8-56.729N,100-41.443E,137.4,29.158,31.3426,177,160
527,2004/12/19,19:29:00,  8-56.582N,100-41.572E,139.8,29.16,31.3465,177,160
528,2004/12/19,19:30:01,  8-56.428N,100-41.705E,138.9,29.163,31.3518,178,160
529,2004/12/19,19:31:01,  8-56.280N,100-41.836E,138.8,29.168,31.3558,178,160
530,2004/12/19,19:32:00,  8-56.130N,100-41.966E,138.7,29.178,31.3601,179,160
531,2004/12/19,19:33:00,  8-55.979N,100-42.097E,138.6,29.187,31.3649,178,160
532,2004/12/19,19:34:01,  8-55.831N,100-42.229E,139.3,29.196,31.3706,179,160
533,2004/12/19,19:35:01,  8-55.681N,100-42.359E,138.2,29.204,31.3743,178,160
534,2004/12/19,19:36:01,  8-55.529N,100-42.492E,136.9,29.21,31.3798,182,160
535,2004/12/19,19:37:00,  8-55.384N,100-42.620E,137.7,29.213,31.3839,177,160
536,2004/12/19,19:38:01,  8-55.236N,100-42.751E,137.6,29.21,31.3874,184,160